Regional Weather Roundup
Issued by NWS

Home | Current Version | Previous Version | Graphics & Text | Print | Product List | Glossary On
Versions: 1 2 3 4 5 6 7 8 9 10 11 12 13 14 15 16 17 18 19 20 21 22 23 24 25 26 27
000
ASUS45 KCYS 160310
RWRWY

WYOMING REGIONAL WEATHER ROUNDUP
NATIONAL WEATHER SERVICE CHEYENNE WY
800 PM MST MON JAN 15 2018

NOTE:  "FAIR" INDICATES FEW OR NO CLOUDS BELOW 12,000 FEET
WITH NO SIGNIFICANT WEATHER AND/OR OBSTRUCTIONS TO VISIBILITY.

WYZ001-160400-
YELLOWSTONE NATIONAL PARK

CITY           SKY/WX    TMP DP  RH WIND       PRES   REMARKS
LK YELLOWSTONE   N/A      6   3  87 NW3       30.39R
W YELLOWSTONE  NOT AVBL

$$
WYZ002>013-054>058-071-098>099-160400-
NORTHERN WYOMING

CITY           SKY/WX    TMP DP  RH WIND       PRES   REMARKS
JACKSON        FOG       10   9  92 N7        30.39R VSB 1/2 WCI   0
CODY           CLOUDY    17  12  80 SE7       30.48S WCI   8
GREYBULL       FAIR       8   3  80 SE6       30.56R WCI  -2
WORLAND        FAIR       6   2  83 S5        30.53F WCI  -3
SHERIDAN       FAIR     -10 -14  82 CALM      30.56F FOG
BUFFALO        FAIR       4  -2  76 CALM      30.49F
GILLETTE       FAIR      -7 -13  75 S6        30.56F WCI -20
HULETT         FAIR     -13 -18  77 MISG      30.59S
NEWCASTLE      FAIR     -13 -17  84 CALM      30.61S

$$
WYZ014>020-022>026-101>103-160400-
CENTRAL WYOMING

CITY           SKY/WX    TMP DP  RH WIND       PRES   REMARKS
BIG PINEY      CLOUDY    26  18  71 SE5       30.40S WCI  20
PINEDALE       CLOUDY    25  19  80 CALM      30.41S
DUBOIS         CLOUDY    19  14  79 SW8       30.38S WCI   9
LANDER         CLOUDY    23  17  78 CALM      30.46R
RIVERTON       CLOUDY    19   8  62 E3        30.47S
CASPER         FAIR       0  -4  83 NE5       30.48F WCI -10
DOUGLAS        FAIR       2  -8  63 NW3       30.53S

$$
WYZ021-027>030-104>119-160400-
SOUTHERN WYOMING

CITY           SKY/WX    TMP DP  RH WIND       PRES   REMARKS
EVANSTON       FAIR      25  18  74 E14       30.35S WCI  13
FORT BRIDGER   CLOUDY    25  19  77 E8        30.41S WCI  16
ROCK SPRINGS   FAIR      17   8  67 E8        30.41S WCI   7
DIXON            N/A     18   4  53 NE6       30.44S WCI  10
RAWLINS        FAIR       5  -2  72 CALM      30.42S
SARATOGA       FAIR      14  -8  37 CALM      30.41S
LARAMIE        FAIR       3  -7  63 CALM      30.37S
CHEYENNE       FAIR       4  -4  69 NW3       30.43S
TORRINGTON     FAIR       2  -4  76 N9        30.59R WCI -13

$$




USA.gov is the U.S. government's official web portal to all federal, state and local government web resources and services.